Accueil
METAR-TAF:

METAR-TAF

Aéroports :

Bagdad, Irak

Aéroport international de Bagdad

latitude: 33-15-45N, longitude: 44-14-04E, altitude: 35 m

Observation

Le bulletin a été fait il y a 42 minutes, à 22:00 UTC
Vent 13 kt de nord-ouest
Température 36°C
Humidité 12%
Pression 1000 hPa
Visibilité 10 km ou plus
pas de nuages en-dessous de 1500 mètres et pas de cumulonimbus.

METAR: ORBI 272200Z 31013KT CAVOK 36/02 Q1000 NOSIG

Heure: 01:42 (22:42 UTC)

Prévision

Le bulletin a été fait il y a 5 heures et 42 minutes, à 17:00 UTC
Prévision valable du 27 à 18 UTC au 28 à 18 UTC
Vent 14 kt de ouest/nord-ouest
Visibilité 10 km ou plus
pas de nuages en-dessous de 1500 mètres et pas de cumulonimbus.

TAF: ORBI 271700Z 2718/2818 30014KT CAVOK

Observations et prévisions météorologiques de plus de 4000 aéroports (messages METAR et TAF).

Les stations disponibles sont représentées par des disques jaunes et rouges sur la carte.

Passer la souris dessus pour voir le nom de la station.

Cliquer dessus pour voir les observations et prévisions météorologiques.

Pour changer de carte: cliquez sur les boutons verts avec une croix noire pour zoomer, sur le bouton vert avec un tiret pour effectuer un zoom arrière, ou sur les flèches vertes pour les cartes adjacentes.


METAR-TAF: